www.pogodaiklimat.ru

Погода и климат >> Архив погоды >> Малайзия >> Куала-Тренггану


ПОГОДА в Куала-Тренггану

  • Прогноз погоды в Куала-Тренггану
  • Монитор погоды в Куала-Тренггану

АРХИВ ПОГОДЫ в Куала-Тренггану

Время (UTC), дата Ветер
(напр.,м/с)
 
Видим.   Явления Облачность Т
(С)
Тd
(С)
f
(%)
Тe
(С)
Тes
(С)
Комфортность P
(гПа)
Po
(гПа)
Тmin
(С)
Tmax
(С)
R
(мм)
R24
(мм)
S
(см)
18 14.03 В 1 14 км мгла 9/3 660 м
[Sc Ac lent Ci sp]
+27.6 +23.2 77 +37 +37 очень
душно
1013.2 1012.5
00 15.03 ЮЗ 2 18 км мгла 9/1 600 м
[Cu hum Ac trans Ci sp]
+24.3 +22.8 91 +32 +33 очень
душно
1013.5 1012.8 +23.8
06 15.03 В 2 18 км мгла 9/1 600 м
[Cu hum Ac trans Ci sp]
+32.1 +24.0 62 +44 +54 опасность
перегрева
1012.8 1012.1
12 15.03 В 1 14 км мгла 9/1 600 м
[Cu hum Ac trans Ci fib]
+28.9 +22.6 69 +38 +38 очень
душно
1011.9 1011.2 +32.5
18 15.03 ЮЗ 2 14 км мгла 9/3 660 м
[Sc Ac trans Ci sp]
+25.2 +22.8 87 +33 +33 очень
душно
1013.4 1012.7
00 16.03 Ю 2 18 км мгла 9/1 480 м
[Cu hum Ac trans Ci fib]
+23.7 +22.2 91 +31 +31 очень
душно
1013.7 1013.0 +22.8
06 16.03 СВ 3 18 км мгла 9/1 540 м
[Cu hum Ac trans Ci fib]
+31.7 +22.9 60 +42 +51 опасность
перегрева
1013.5 1012.8
12 16.03 штиль 0 12 км мгла 9/3 660 м
[Sc diur, vesp Ac trans Ci fib]
+28.6 +22.8 71 +38 +38 очень
душно
1012.9 1012.2 +32.2
18 16.03 Ю 1 12 км мгла 9/1 660 м
[Sc Ac trans Ci fib]
+25.0 +22.6 87 +33 +33 очень
душно
1013.3 1012.6
00 17.03 Ю 1 12 км мгла 9/3 540 м
[Cu hum Ac As Ci sp]
+24.0 +22.2 90 +31 +32 очень
душно
1013.1 1012.4 +23.2
06 17.03 СВ 3 16 км мгла 9/3 540 м
[Cu hum Ac trans Ci fib]
+32.0 +23.4 60 +43 +50 опасность
перегрева
1011.9 1011.2
12 17.03 В 1 12 км мгла 9/3 660 м
[Sc Ac lent Ci sp]
+29.3 +23.8 72 +40 +40 очень
душно
1011.7 1011.0 +32.7
18 17.03 ЮЗ 2 12 км мгла 9/3 660 м
[Sc Ac trans Ci fib]
+26.1 +23.6 86 +35 +35 очень
душно
1012.5 1011.8
00 18.03 ЮЗ 2 12 км мгла 9/1 540 м
[Cu med, cong Ac trans Ci sp]
+24.8 +23.1 90 +33 +34 очень
душно
1012.5 1011.8 +24.0
06 18.03 ЮВ 2 18 км мгла 9/3 540 м
[Cu hum Ac trans Ci sp]
+32.3 +21.5 53 +40 +49 очень
душно
1011.0 1010.3
12 18.03 СВ 2 14 км мгла 9/1 660 м
[Sc Ac trans Ci sp]
+29.4 +23.3 70 +40 +40 очень
душно
1010.6 1009.9 +33.1
18 18.03 Ю 1 12 км мгла 9/1 660 м
[Sc Ac trans Ci sp]
+25.5 +23.2 87 +34 +34 очень
душно
1011.4 1010.7
00 19.03 Ю 2 16 км мгла 9/1 540 м
[Cu med, cong Ac trans Ci sp]
+25.0 +22.9 88 +33 +34 очень
душно
1011.6 1010.9 +24.0
06 19.03 В 3 18 км мгла 9/3 540 м
[Cu med, cong Ac trans Ci sp]
+32.4 +24.0 61 +44 +51 опасность
перегрева
1010.9 1010.2
12 19.03 СВ 3 12 км мгла 9/1 540 м
[Cu hum Ac trans Ci fib]
+29.3 +24.5 75 +41 +41 опасность
перегрева
1009.3 1008.6 +32.9
18 19.03 В 1 14 км мгла 9/3 660 м
[Sc Ac trans Ci sp]
+27.9 +23.2 76 +38 +38 очень
душно
1011.3 1010.6
00 20.03 ЮЗ 2 18 км мгла 9/3 420 м
[Cu hum Ac trans Ci fib]
+25.4 +23.7 90 +35 +35 очень
душно
1011.3 1010.6 +24.5
06 20.03 В 3 20 км мгла 9/1 540 м
[Cu hum Ac trans Ci fib]
+32.5 +24.0 61 +44 +53 опасность
перегрева
1010.5 1009.8
12 20.03 СВ 2 14 км мгла 9/1 660 м
[Sc diur, vesp Ac trans Ci fib]
+29.3 +23.9 73 +41 +41 опасность
перегрева
1009.0 1008.3 +32.6
18 20.03 З 1 12 км мгла 9/3 660 м
[Sc Ac trans Ci fib]
+26.7 +23.9 85 +37 +37 очень
душно
1011.5 1010.8
00 21.03 ЮЗ 2 18 км мгла 9/3 540 м
[Cu hum Ac trans Ci fib]
+25.0 +23.5 91 +34 +34 очень
душно
1011.2 1010.5 +24.4
06 21.03 СВ 4 20 км мгла 9/3 540 м
[Cu hum Ac trans Ci fib]
+32.5 +25.1 65 +46 +52 опасность
перегрева
1010.9 1010.2
12 21.03 СВ 3 14 км мгла 9/1 660 м
[Sc Ac trans Ci fib]
+29.5 +24.1 73 +41 +41 опасность
перегрева
1009.4 1008.7 +33.0

 

Местоположение метеостанции Куала-Тренггану (Малайзия): широта 5.38 долгота 103.10 высота над уровнем моря 6 м.

В архиве по умолчанию представлена погода в Куала-Тренггану за последнюю неделю. Архивные данные за месяц целиком и за предыдущие месяцы, начиная с января 2011 года, Вы можете получить, выбрав интересующий диапазон дат из раскрывающегося списка и нажав кнопку "Ввод!".


*Определитесь, кто Вы:
робот инопланетянин человек

Внимание! Время в таблицах - всемирное. Для получения местного времени необходимо прибавить поправку, которая равна 7 ч.

Смотрите также архив погоды в соседних городах и на ближайших метеорологических станциях:

Погода в Мерсинге (Малайзия) (81 км)
Погода в Кота-Бхару (Малайзия) (126 км)
Погода в Куантане (Малайзия) (178 км)
Погода в Наратхивате (Таиланд) (184 км)
Погода на Нагорье Кэмерон (Малайзия) (217 км)
Погода в Яла Агромете (Таиланд) (238 км)
Погода в Ипохе (Малайзия) (239 км)
Погода в Паттани (Таиланд) (266 км)
Погода в Ситаване (Малайзия) (296 км)
Погода на Авиабазе Баттерворт (Малайзия) (301 км)

Пояснения к столбцам:

Ветер - указаны скорость ветра в м/с - средняя за 10 мин, порывы в срок и между сроками (в фигурных скобках) и направление, откуда дует ветер: С - северный, СВ - северо-восточный, В - восточный, ЮВ - юго-восточный, Ю - южный, ЮЗ - юго-западный, З - западный, СЗ - северо-западный.
Видимость - горизонтальная дальность видимости в метрах или километрах. При видимости от 1 до 10 км при отсутствии осадков обычно наблюдается дымка, при ухудшении видимости до 1 км и менее - туман. В сухую погоду видимость может ухудшаться дымом, пылью или мглою.
Явления - указаны атмосферные явления, наблюдавшиеся в срок или в последний час перед сроком; фигурными скобками обозначены явления, наблюдавшиеся между сроками (за 1-3 часа до срока); квадратными скобками обозначены град или гололедные отложения с указанием их диаметра в мм.
Облачность - указаны через наклонную черту общая и нижняя облачность в баллах и высота нижней границы облаков в метрах; квадратными скобками обозначены формы облаков: Ci - перистые, Cs - перисто-слоистые, Cc - перисто-кучевые, Ac - высококучевые, As - высокослоистые, Sc - слоисто-кучевые, Ns - слоисто-дождевые, Cu - кучевые, Cb - кучево-дождевые. Подробнее классификацию облаков см. в Атласе облаков (PDF).
T - Температура воздуха - температура, измеренная на высоте 2 м над землей.
Td - Температура точки росы - температура, при понижении до которой содержащийся в воздухе водяной пар достигнет насыщения.
f - Относительная влажность воздуха - влажноcть воздуха, измеренная на высоте 2 м над землей.
Te - Эффективная температура - температура, которую ощущает одетый по сезону человек в тени. Характеристика душности погоды. При расчете учитывается влияние влажности воздуха и скорости ветра на теплоощущения человека.
Tes - Эффективная температура на солнце - температура, которую ощущает человек, с поправкой на солнечный нагрев. Характеристика знойности погоды. Зависит от высоты солнца над горизонтом, облачности и скорости ветра. Ночью, в пасмурную погоду, а также при ветре 12 м/с и более поправка равна нулю.
P - Атмосферное давление - приведенное к уровню моря атмосферное давление.
Po - Атмосферное давление - измеренное на уровне метеостанции атмосферное давление.
Tmin - Минимальная температура - минимум температуры воздуха на высоте 2 м над землей.
Tmax - Максимальная температура - максимум температуры воздуха на высоте 2 м над землей.
R - Количество осадков - Количество выпавших осадков за период времени, мм. При наведении курсора мыши на число - период времени, за который выпало указанное количество осадков.
R24 - Количество осадков - Количество выпавших осадков за 24 часа, мм.
S - Снежный покров - Высота снежного покрова, см. При наведении курсора мыши на число - состояние снежного покрова и степень покрытия местности в баллах.